Tracking 25372 objects as of 24-Jan-2022
HD Live streaming from Space Station
objects crossing your sky now

SKYNET 2B

Track SKYNET 2B now!
SKYNET 2B is classified as:


NORAD ID: 7547
Int'l Code: 1974-094A
Perigee: 35,766.8 km
Apogee: 35,793.6 km
Inclination: 7.6 °
Period: 1,435.4 minutes
Semi major axis: 42151 km
RCS: 3.166 m2 (large)
Launch date: November 23, 1974
Source: United Kingdom (UK)
Launch site: AIR FORCE EASTERN TEST RANGE (AFETR)
aabbcc
Your satellite tracking list
Your tracking list is empty




NASA's NSSDC Master Catalog

Two Line Element Set (TLE):
1 07547U 74094A   22022.97539126  .00000114  00000-0  00000-0 0  9993
2 07547   7.5643 297.8569 0003184 137.0046  53.0942  1.00320184108655
Source of the keplerian elements: AFSPC